Anoka County, MN

6:38 PM CST on December 12, 2019 (GMT -0600)
Anoka County / Blaine Airport

Weather History for KANE - August, 2019

Change the Weather History Date:

Sunday, August 18, 2019

  Actual Average Record
Temperature  
Mean Temperature 67 °F -  
Max Temperature 75 °F 75 °F 89 °F (2003)
Min Temperature 57 °F 57 °F 48 °F (2004)
Cooling Degree Days 2    
Growing Degree Days 17 (Base 50)    
Moisture  
Dew Point 60 °F    
Average Humidity 82    
Maximum Humidity 100    
Minimum Humidity 41    
Precipitation  
Precipitation 0.29 in - - ()
Sea Level Pressure  
Sea Level Pressure 29.75 in    
Wind  
Wind Speed 7 mph (NW)    
Max Wind Speed 15 mph    
Max Gust Speed 22 mph    
Visibility 9 miles    
Events Rain    
Averages and records for this station are not official NWS values.
T = Trace of Precipitation, MM = Missing Value Source: NWS Daily Summary

Daily Weather History Graph

Daily Weather History Graph

Search for Another Location

Airport or City:

Astronomy

Aug. 18, 2019 Rise Set
Actual Time 6:17 AM CDT 8:14 PM CDT
Civil Twilight 5:45 AM CDT 8:46 PM CDT
Nautical Twilight 5:06 AM CDT 9:25 PM CDT
Astronomical Twilight 4:24 AM CDT 10:07 PM CDT
Moon 10:02 PM CDT (8/18) 9:09 AM CDT (8/18)
Length of Visible Light 15h 00m
Length of Day
13h 57m
Waning Gibbous, 91% of the Moon is Illuminated
Aug 18
Waning Gibbous
Aug 23
Last Quarter
Aug 30
New
Sep 5
First Quarter
Sep 13
Full

Hourly Weather History & Observations

Time (CDT) Temp. Dew Point Humidity Pressure Visibility Wind Dir Wind Speed Gust Speed Precip Events Conditions
12:16 AM 71.6 °F 66.2 °F 83% 29.71 in 7.0 mi SSE 3.5 mph - N/A Rain Light Rain
12:35 AM 71.6 °F 66.2 °F 83% 29.70 in 10.0 mi Calm Calm - N/A   Unknown
12:55 AM 69.8 °F 62.6 °F 78% 29.70 in 7.0 mi NNW 9.2 mph 21.9 mph 0.01 in Rain Rain
12:59 AM 69.8 °F 62.6 °F 78% 29.71 in 7.0 mi NNW 8.1 mph 16.1 mph N/A Rain Light Rain
1:17 AM 66.2 °F 64.4 °F 94% 29.69 in 7.0 mi North 11.5 mph - 0.01 in Rain Light Rain
1:35 AM 66.2 °F 64.4 °F 94% 29.70 in 5.0 mi Calm Calm - 0.03 in Rain Heavy Rain
1:55 AM 66.2 °F 64.4 °F 94% 29.70 in 5.0 mi NW 5.8 mph - 0.04 in Rain Heavy Rain
2:15 AM 66.2 °F 64.4 °F 94% 29.67 in 4.0 mi NNW 11.5 mph - 0.02 in Rain Heavy Rain
2:19 AM 66.2 °F 64.4 °F 94% 29.66 in 3.0 mi NNW 13.8 mph - 0.03 in Rain Heavy Rain
2:37 AM 64.4 °F 64.4 °F 100% 29.65 in 4.0 mi North 13.8 mph - 0.04 in Rain Heavy Rain
2:55 AM 64.4 °F 64.4 °F 100% 29.63 in 5.0 mi North 15.0 mph - 0.06 in Rain Heavy Rain
3:16 AM 66.2 °F 64.4 °F 94% 29.62 in 7.0 mi North 12.7 mph - 0.02 in Rain Rain
3:36 AM 66.2 °F 64.4 °F 94% 29.63 in 5.0 mi NW 12.7 mph - 0.04 in Rain Heavy Rain
3:59 AM 66.2 °F 64.4 °F 94% 29.67 in 10.0 mi SSW 3.5 mph - N/A Rain Light Rain
4:16 AM 66.2 °F 64.4 °F 94% 29.62 in 5.0 mi East 4.6 mph - 0.02 in Rain Rain
4:36 AM 64.4 °F 64.4 °F 100% 29.57 in 10.0 mi East 9.2 mph - 0.04 in Rain Rain
4:56 AM 64.4 °F 64.4 °F 100% 29.56 in 10.0 mi East 8.1 mph - N/A Rain Light Rain
5:15 AM 64.4 °F 64.4 °F 100% 29.62 in 10.0 mi West 10.4 mph - 0.02 in Rain Light Rain
5:20 AM 64.4 °F 64.4 °F 100% 29.62 in 10.0 mi West 8.1 mph - 0.03 in Rain Light Rain
5:38 AM 64.4 °F 64.4 °F 100% 29.61 in 10.0 mi NW 6.9 mph - 0.04 in   Unknown
5:55 AM 64.4 °F 64.4 °F 100% 29.63 in 10.0 mi WNW 8.1 mph - 0.06 in   Unknown
6:16 AM 64.4 °F 64.4 °F 100% 29.65 in 10.0 mi WNW 8.1 mph - 0.02 in   Unknown
6:36 AM 64.4 °F 64.4 °F 100% 29.68 in 10.0 mi West 6.9 mph - 0.04 in   Unknown
6:59 AM 64.4 °F 64.4 °F 100% 29.68 in 10.0 mi West 11.5 mph - N/A   Mostly Cloudy
7:45 AM 64.4 °F 64.4 °F 100% 29.72 in 10.0 mi WNW 11.5 mph - N/A   Overcast
8:45 AM 66.2 °F 64.4 °F 94% 29.76 in 10.0 mi West 11.5 mph - N/A   Mostly Cloudy
9:45 AM 66.2 °F 64.4 °F 94% 29.78 in 10.0 mi WNW 11.5 mph - N/A   Overcast
10:45 AM 69.8 °F 64.4 °F 83% 29.79 in 10.0 mi WNW 11.5 mph - N/A   Overcast
11:45 AM 71.6 °F 62.6 °F 73% 29.80 in 10.0 mi WSW 12.7 mph - N/A   Mostly Cloudy
12:45 PM 71.6 °F 57.2 °F 60% 29.82 in 10.0 mi West 15.0 mph 21.9 mph N/A   Mostly Cloudy
1:52 PM 73.4 °F 55.4 °F 53% 29.83 in 10.0 mi WNW 15.0 mph 19.6 mph N/A   Scattered Clouds
2:45 PM 73.4 °F 53.6 °F 50% 29.83 in 10.0 mi WNW 12.7 mph 17.3 mph N/A   Scattered Clouds
3:45 PM 75.2 °F 53.6 °F 47% 29.84 in 10.0 mi West 9.2 mph 15.0 mph N/A   Partly Cloudy
4:45 PM 75.2 °F 51.8 °F 44% 29.85 in 10.0 mi WNW 12.7 mph 20.7 mph N/A   Scattered Clouds
5:45 PM 73.4 °F 48.2 °F 41% 29.85 in 10.0 mi WNW 12.7 mph 18.4 mph N/A   Scattered Clouds
6:45 PM 73.4 °F 48.2 °F 41% 29.86 in 10.0 mi NW 11.5 mph - N/A   Partly Cloudy
7:45 PM 71.6 °F 51.8 °F 50% 29.87 in 10.0 mi WNW 5.8 mph - N/A   Clear
8:45 PM 66.2 °F 51.8 °F 60% 29.89 in 10.0 mi West 4.6 mph - N/A   Clear
9:45 PM 62.6 °F 53.6 °F 72% 29.91 in 10.0 mi Calm Calm - N/A   Clear
10:16 PM 60.8 °F 53.6 °F 77% 29.91 in 10.0 mi Calm Calm - N/A   Unknown
10:35 PM 60.8 °F 53.6 °F 77% 29.92 in 10.0 mi Calm Calm - N/A   Unknown
10:39 PM 60.8 °F 53.6 °F 77% 29.92 in 10.0 mi Calm Calm - N/A   Unknown
10:57 PM 60.8 °F 51.8 °F 72% 29.92 in 10.0 mi Calm Calm - N/A   Unknown
11:15 PM 59.0 °F 51.8 °F 77% 29.92 in 10.0 mi Calm Calm - N/A   Unknown
11:36 PM 59.0 °F 51.8 °F 77% 29.93 in 10.0 mi Calm Calm - N/A   Unknown
11:56 PM 57.2 °F 53.6 °F 88% 29.94 in 10.0 mi Calm Calm - N/A   Unknown